Regional Weather Roundup
Issued by NWS

Home | Current Version | Previous Version | Graphics & Text | Print | Product List | Glossary Off
Versions: 1 2 3 4 5 6 7 8 9 10 11 12 13 14 15 16 17 18 19 20 21 22 23 24 25 26 27 28 29 30 31 32 33 34 35 36 37 38 39 40 41 42 43 44 45 46 47 48 49 50

000
ASUS43 KDTX 191410
RWRMI
MICHIGAN HOURLY REGIONAL WEATHER ROUNDUP
NATIONAL WEATHER SERVICE DETROIT/PONTIAC MI
1000 AM EDT FRI SEP 19 2014

NOTE: "FAIR" INDICATES FEW OR NO CLOUDS BELOW 12,000 FEET WITH NO
SIGNIFICANT WEATHER AND/OR OBSTRUCTION TO VISIBILITY.

MIZ047>049-052>055-059>063-066>070-074>076-081>083-191500-
SOUTHEAST LOWER MICHIGAN

CITY           SKY/WX    TMP DP  RH WIND       PRES   REMARKS
ADRIAN         SUNNY     55  47  74 E6        30.27R
ALMA           SUNNY     51  47  85 CALM      30.26F
ANN ARBOR      SUNNY     54  45  71 SE5       30.27R
BAD AXE        SUNNY     52  49  90 CALM      30.29S
CARO           SUNNY     50  46  86 SE3       30.27S
DETROIT CITY   SUNNY     55  45  68 N3        30.27S
DETROIT        MOSUNNY   53  44  71 CALM      30.27S
FLINT          SUNNY     53  45  74 SE5       30.28S
GROSSE ILE     SUNNY     55  48  76 NE3       30.26R
HILLSDALE      SUNNY     56  51  84 SE6       30.26R
HOWELL         SUNNY     52  47  83 E3        30.26S

CITY           SKY/WX    TMP DP  RH WIND       PRES   REMARKS
JACKSON        SUNNY     54  47  77 SE7       30.26R
LAMBERTVILLE   SUNNY     57  50  77 E3        30.26R
LANSING        SUNNY     54  47  77 SE7       30.26S
LAPEER         FAIR      50  45  85 E3        30.28R
MASON          SUNNY     52  46  80 SE6       30.26S
MONROE         SUNNY     55  46  71 NE3       30.25R
MT. CLEMENS    MOSUNNY   51  47  86 N3        30.24S
PONTIAC        MOSUNNY   52  44  74 VRB3      30.27R
PORT HOPE        N/A     54  45  71 VRB3      30.26F
PORT HURON     SUNNY     52  48  87 E5        30.27S
TRI CITIES     SUNNY     51  44  77 S7        30.27F
TROY           SUNNY     52  44  74 CALM      30.28S
SAGINAW HB     SUNNY     50  48  93 SE5       30.26F
$$
MIZ043>046-050>051-056>058-064>065-071>073-077>080-191500-
SOUTHWEST LOWER MICHIGAN

CITY           SKY/WX    TMP DP  RH WIND       PRES   REMARKS
BATTLE CREEK   SUNNY     54  48  80 SE7       30.24F
BENTON HARBOR  SUNNY     57  52  83 SE9       30.20S
BIG RAPIDS     SUNNY     51  48  91 S8        30.22S
COLDWATER      SUNNY     56  52  84 SE9       30.25S
FREMONT        FOG       49  48  98 SE6       30.21F VSB 1/2
HOLLAND        SUNNY     57  52  83 SE8       30.22S
GRAND RAPIDS   MOSUNNY   53  52  96 SE8       30.23F FOG
IONIA          FAIR      52  49  89 SE6       30.24F
KALAMAZOO      SUNNY     55  49  80 SE5       30.24F
LUDINGTON      MOSUNNY   55  51  86 S7        30.17F
MARSHALL       SUNNY     54  49  85 SE7       30.24F
MOUNT PLEASANT SUNNY     48  45  91 SE6       30.24F
MUSKEGON       PTSUNNY   56  51  84 SE13      30.20F HAZE
SOUTH HAVEN    SUNNY     57  54  88 SE8       30.21S
$$
MIZ016>042-191500-
NORTHERN LOWER MICHIGAN

CITY           SKY/WX    TMP DP  RH WIND       PRES   REMARKS
ALPENA         SUNNY     51  43  74 S12       30.25F
BEAVER ISLAND  PTSUNNY   55  49  81 S9G21     30.14F
BELLAIRE       MOSUNNY   53  44  70 S7        30.19F
CADILLAC       SUNNY     53  46  79 SE8       30.20F
CHARLEVOIX     MOSUNNY   53  46  78 SE10G16   30.19F
FRANKFORT      MOSUNNY   56  48  73 S9G16     30.16F
GAYLORD        MOSUNNY   50  42  74 S13       30.20F
GRAYLING       SUNNY     52  45  77 S5        30.23S
HARBOR SPRINGS PTSUNNY   54  45  72 CALM      30.18F
HOUGHTON LAKE  SUNNY     50  43  77 SE12      30.23F
MANISTEE       MOSUNNY   52  45  76 SE6       30.18F
OSCODA         SUNNY     52  44  73 S5        30.26F
PELLSTON       PTSUNNY   52  45  77 SE7       30.18F
ROGERS CITY    CLOUDY    49  43  82 S9        30.23F
TRAVERSE CITY  MOSUNNY   53  43  68 S7        30.17F
$$
MIZ007>008-015-191500-
EASTERN UPPER MICHIGAN

CITY           SKY/WX    TMP DP  RH WIND       PRES   REMARKS
KINROSS        CLOUDY    48  46  93 S10       30.17S
MACKINAC ISLAN CLOUDY    50  45  81 S12G21    30.17S
NEWBERRY       CLOUDY    52  50  94 S14       30.12F
S. S. MARIE    CLOUDY    50  43  77 SE8       30.17F
MUNISING         N/A     59  52  77 S12G22    30.05F
$$
MIZ004>006-011>014-085-191500-
CENTRAL UPPER MICHIGAN

CITY           SKY/WX    TMP DP  RH WIND       PRES   REMARKS
MANISTIQUE     CLOUDY    55  52  89 S13G21    30.11F
ESCANABA       CLOUDY    57  54  88 S14G21    30.09F
MENOMINEE      CLOUDY    57  54  88 SW9       30.10F
SAWYER-GWINN   CLOUDY    50  48  93 S18       30.05F FOG
$$
MIZ001>003-009>011-084-191500-
WESTERN UPPER MICHIGAN

CITY           SKY/WX    TMP DP  RH WIND       PRES   REMARKS
IRON MOUNTAIN  CLOUDY    51  48  89 S12       30.05F
HOUGHTON         N/A     52  49  89 MISG      29.93F
COPPER HARBOR    N/A     54  49  83 SW8G17    29.92F
IRONWOOD       CLOUDY    57  52  82 S16G24    29.87F
$$

ABBREVIATIONS USED IN REMARKS
   TC - TEMPERATURE IN CELSIUS
  WCI - WIND CHILL INDEX
   HX - HEAT INDEX
  VSB - VISIBILITY



USA.gov is the U.S. government's official web portal to all federal, state and local government web resources and services.